sat.trackr.live / text

‹ back to catalog

STARLINK-31046

NORAD 58552 · 2023-192X

PAYLOAD ACTIVE UNKNOWN

§ Identity

Operator
Country
US
Launch date
2023-12-08
Launch site
AFWTR
Launch vehicle
Mass (kg)
RCS (m²)

Purposes: comms

External: N2YO · Heavens-Above · Gunter

§ Orbital elements

Epoch: 2026-09-20T08:14:33.954720Z

Period
93.85 min
Inclination
53.1594°
Eccentricity
0.0001554
Mean motion
15.34393353 rev/d
Perigee alt
461.7 km
Apogee alt
463.8 km
Semi-major
6,840.9 km
B*
4.4291e-5
RAAN
234.6283°
Arg perigee
85.5337°
Mean anomaly
274.5843°
Rev number
15,584

§ Raw data

STARLINK-310461 58552U 23192X   26263.34344855  .00001120  00000+0  44291-4 0  99942 58552  53.1594 234.6283 0001554  85.5337 274.5843 15.34393353155843

JSON: /api/v1/satellites/58552 · /tle

For live sub-satellite position, see the globe view (requires WebGL).

§ Visibility from observer

Set your observer location to see the next 7 days of passes ≥ 10°. The values pass through the URL so the page stays shareable.

No JS? Fill the form by hand. The geolocation button needs JavaScript.